Starlink 30288

operational
NORAD ID: 57698 Int'l Des: 2023-129 Owner: SPXS Country: US Constellation: starlink
LEOCIRCULAR

关于 Starlink 30288

正在加载描述...

实时位置

正在加载3D地球...

即将过境

高度历史

Altitude vs Time

uPlot chart will show altitude changes over time

两行轨道根数

1 57698U 23129A 26037.08847697 .00000573 00000-0 57497-4 0 9990
2 57698 43.0045 291.7616 0001263 263.3597 96.7101 15.02538321135904
Epoch: Feb 6, 2026 • Age: 15 hours

当前状态

高度 559.3 km
速度 7.58 km/s
星下点 -4.05°S, 76.21°E
发射日期 Aug 27, 2023
运行时间 2.4 years
类型 internet

技术详情

分类 Payload
质量 730.00 kg
干质量 700.00 kg
总质量 730.00 kg
长度 0.30 m
直径 4.10 m
跨度 29.00 m
形状 Box + pan
制造商 SPXS
平台类型 Starlink V2M
阶段状态 In Orbit
所有者/国家 SPXS/US

大型星座

Loading constellations...